Terug naar catalogus

STARLINK-36633

ActiefCommunicatieVLEO
NORAD 67632·PAYLOAD·🇺🇸 United States

Gelanceerd Jan 30, 2026 vanaf Cape Canaveral Space Force Station

Loading…

Volgende Passages (komende 24 uur)

TLE

VersSource: CelesTrak SupGP

Epoch: Sep 15, 2026, 03:54 UTC

1 67632C 26020R   26258.16298611  .00072795  00000+0  26363-2 0  2580
2 67632  42.9993 149.9730 0001467 274.0411 256.0290 15.27546497    17

Volg STARLINK-36633 in realtime met AllMySat

Download on the App Store